This demonstration page uses our WeatherBlox Daily Observations layout. Learn more.

Left ArrowRight Arrow

Hourly Observations for October 28, 2015

Temp ( °F °C ) Dew Point ( °F °C ) Humidity (%) Winds ( mph kmh ) Pressure ( in mb ) Visibility ( mi km ) Precip ( " mm )
12:15 am 00:15 Cloudy 50 9.9 43 6 77 77 NNW 16 26 29.91 1013 10 16 N/A
12:35 am 00:35 Cloudy 50 10 43 6 76 76 N 15 24 29.91 1013 10 16 N/A
12:55 am 00:55 Cloudy 50 9.8 43 6.1 78 78 NNW 17 28 29.91 1013 10 16 N/A
1:15 am 01:15 Cloudy 49 9.2 42 5.7 79 79 NNW 13 20 29.94 1014 10 16 N/A
1:35 am 01:35 Partly Cloudy 48 8.8 42 5.5 80 80 NNW 13 20 29.94 1014 10 16 N/A
1:55 am 01:55 Partly Cloudy 47 8.4 41 5.2 80 80 NW 13 20 29.94 1014 10 16 N/A
2:15 am 02:15 Partly Cloudy 46 7.7 41 5 83 83 NW 10 17 29.94 1014 10 16 N/A
2:35 am 02:35 Partly Cloudy 46 7.8 41 5.2 84 84 NNW 10 17 29.94 1014 10 16 N/A
2:55 am 02:55 Cloudy 47 8.5 42 5.5 82 82 NW 10 17 29.94 1014 10 16 N/A
3:15 am 03:15 Mostly Cloudy 47 8.2 42 5.5 83 83 NW 13 20 29.94 1014 10 16 N/A
3:35 am 03:35 Mostly Cloudy 47 8.5 42 5.5 82 82 NW 15 24 29.94 1014 10 16 N/A
3:55 am 03:55 Mostly Cloudy 47 8.1 42 5.3 83 83 WNW 12 19 29.94 1014 10 16 N/A
4:15 am 04:15 Cloudy 47 8.5 42 5.5 82 82 NW 13 20 29.94 1014 10 16 N/A
4:35 am 04:35 Cloudy 48 8.7 42 5.6 81 81 NW 15 24 29.94 1014 10 16 N/A
4:55 am 04:55 Mostly Cloudy 47 8.3 41 5 80 80 NW 17 28 29.94 1014 10 16 N/A
5:15 am 05:15 Mostly Cloudy 47 8.1 41 5 81 81 NW 15 24 29.94 1014 10 16 N/A
5:35 am 05:35 Partly Cloudy 44 6.7 39 3.7 81 81 NW 9 15 29.94 1014 10 16 N/A
5:55 am 05:55 Clear 42 5.7 35 1.8 76 76 NW 15 24 29.94 1014 10 16 N/A
6:15 am 06:15 Clear 41 5.1 34 1.3 77 77 NW 16 26 29.97 1015 10 16 N/A
6:35 am 06:35 Clear 40 4.6 34 1.1 78 78 NW 15 24 29.97 1015 10 16 N/A
6:55 am 06:55 Clear 39 4 33 0.8 80 80 NW 13 20 29.97 1015 10 16 N/A
7:15 am 07:15 Clear 38 3.6 33 0.7 82 82 NW 10 17 29.97 1015 10 16 N/A
7:35 am 07:35 Clear 38 3.6 33 0.8 82 82 NW 13 20 29.97 1015 10 16 N/A
7:55 am 07:55 Clear 38 3.4 33 0.5 82 82 NW 10 17 29.97 1015 10 16 N/A
8:15 am 08:15 Sunny 38 3.5 33 0.7 82 82 WNW 10 17 29.97 1015 10 16 N/A
8:35 am 08:35 Sunny 39 3.7 33 0.7 81 81 NW 14 22 29.97 1015 10 16 N/A
8:55 am 08:55 Sunny 40 4.4 33 0.6 77 77 NW 12 19 29.97 1015 10 16 N/A
9:15 am 09:15 Sunny 41 5.1 33 0.6 73 73 NNW 13 20 29.97 1015 10 16 N/A
9:35 am 09:35 Partly Cloudy 42 5.7 33 0.6 70 70 NNW 12 19 29.94 1014 10 16 N/A
9:55 am 09:55 Mostly Cloudy 43 6 33 0.6 69 69 NW 9 15 29.94 1014 10 16 N/A
10:15 am 10:15 Partly Cloudy 44 6.6 34 1.1 68 68 NNW 10 17 29.94 1014 10 16 N/A
10:35 am 10:35 Sunny 45 7.1 35 1.4 67 67 NNW 7 11 29.94 1014 10 16 N/A
10:55 am 10:55 Sunny 46 8 36 2.3 68 68 NW 6 9 29.91 1013 10 16 N/A
11:15 am 11:15 Sunny 47 8.2 36 2.2 66 66 WNW 8 13 29.91 1013 10 16 N/A
11:35 am 11:35 Sunny 49 9.5 38 3.2 65 65 WNW 14 22 29.88 1012 10 16 N/A
11:55 am 11:55 Sunny 51 10.3 38 3.3 62 62 W 13 20 29.85 1011 10 16 N/A
12:15 pm 12:15 Sunny 51 10.7 38 3.2 60 60 WNW 13 20 29.85 1011 10 16 N/A
12:35 pm 12:35 Sunny 53 11.5 37 2.9 56 56 NW 13 20 29.83 1010 10 16 N/A
12:55 pm 12:55 Partly Cloudy 55 12.7 38 3.4 53 53 W 17 28 29.80 1009 10 16 N/A
1:15 pm 13:15 Mostly Cloudy 56 13.2 39 3.7 53 53 WNW 16 26 29.80 1009 10 16 N/A
1:35 pm 13:35 Cloudy 56 13.4 36 2.3 47 47 WNW 22 35 29.77 1008 10 16 N/A
1:55 pm 13:55 Mostly Cloudy 58 14.2 37 2.7 46 46 WNW 22 35 29.77 1008 10 16 N/A
2:15 pm 14:15 Partly Cloudy 57 13.8 36 2.3 46 46 WNW 23 37 29.74 1007 10 16 N/A
2:35 pm 14:35 Mostly Cloudy 57 13.9 36 2.2 45 45 WNW 18 30 29.74 1007 10 16 N/A
2:55 pm 14:55 Mostly Cloudy 56 13.3 34 1.1 44 44 NW 21 33 29.74 1007 10 16 N/A
3:15 pm 15:15 Partly Cloudy 58 14.4 32 0.2 38 38 WNW 23 37 29.74 1007 10 16 N/A
3:35 pm 15:35 Mostly Cloudy 58 14.5 31 -0.4 36 36 NW 24 39 29.71 1006 10 16 N/A
3:55 pm 15:55 Mostly Cloudy 58 14.7 32 0 37 37 WNW 23 37 29.71 1006 10 16 N/A
4:15 pm 16:15 Partly Cloudy 58 14.7 32 -0.2 36 36 WNW 22 35 29.71 1006 10 16 N/A
4:35 pm 16:35 Partly Cloudy 58 14.2 29 -1.8 33 33 WNW 29 46 29.74 1007 10 16 N/A
4:55 pm 16:55 Partly Cloudy 59 14.9 29 -1.5 33 33 NW 24 39 29.71 1006 10 16 N/A
5:15 pm 17:15 Partly Cloudy 57 14 29 -1.8 34 34 NW 21 33 29.74 1007 10 16 N/A
5:35 pm 17:35 Partly Cloudy 56 13.5 29 -1.7 35 35 WNW 26 43 29.74 1007 10 16 N/A
5:55 pm 17:55 Sunny 56 13.4 28 -2.4 34 34 NW 23 37 29.74 1007 10 16 N/A
6:15 pm 18:15 Sunny 55 12.7 27 -2.8 34 34 NW 18 30 29.74 1007 10 16 N/A
6:35 pm 18:35 Sunny 53 11.6 29 -1.7 40 40 NNW 13 20 29.74 1007 10 16 N/A
6:55 pm 18:55 Clear 49 9.3 31 -0.4 51 51 N 7 11 29.77 1008 10 16 N/A
7:15 pm 19:15 Clear 44 6.9 31 -0.3 60 60 N 7 11 29.80 1009 10 16 N/A
7:35 pm 19:35 Clear 42 5.5 32 -0.2 67 67 N 8 13 29.83 1010 10 16 N/A
7:55 pm 19:55 Clear 42 5.5 32 -0.2 67 67 N 7 11 29.83 1010 10 16 N/A
8:15 pm 20:15 Clear 40 4.5 31 -0.5 70 70 N 6 9 29.83 1010 10 16 N/A
8:35 pm 20:35 Clear 41 5 29 -1.7 62 62 N 9 15 29.88 1012 10 16 N/A
8:55 pm 20:55 Clear 39 3.9 26 -3.1 61 61 N 6 9 29.88 1012 10 16 N/A
9:15 pm 21:15 Clear 38 3.4 25 -4 59 59 Calm 29.91 1013 10 16 N/A
9:35 pm 21:35 Clear 37 2.9 24 -4.6 58 58 N 5 7 29.91 1013 10 16 N/A
9:55 pm 21:55 Clear 35 1.6 24 -4.3 65 65 N 6 9 29.94 1014 10 16 N/A
10:15 pm 22:15 Clear 33 0.5 24 -4.2 71 71 NW 6 9 29.97 1015 10 16 N/A
10:35 pm 22:35 Clear 32 -0.1 24 -4.2 74 74 W 6 9 29.97 1015 10 16 N/A
10:55 pm 22:55 Clear 32 -0.1 25 -4 75 75 W 6 9 29.97 1015 10 16 N/A
11:15 pm 23:15 Clear 31 -0.5 25 -4.1 77 77 WNW 7 11 30.00 1016 10 16 N/A
11:35 pm 23:35 Clear 31 -0.6 24 -4.4 76 76 WNW 8 13 30.03 1017 10 16 N/A
11:55 pm 23:55 Clear 31 -0.4 24 -4.2 76 76 NW 8 13 30.00 1016 10 16 N/A

Powered by AerisWeather